Regional Weather Roundup
Issued by NWS Kansas City/Pleasant Hill, MO

Home | Current Version | Previous Version | Graphics & Text | Print | Product List | Glossary Off
Versions: 1 2 3 4 5 6 7 8 9 10 11 12 13 14 15 16 17 18 19 20 21 22 23 24 25 26 27 28 29 30 31 32 33 34 35 36 37 38 39 40 41 42 43 44 45 46 47 48 49 50

000
ASUS43 KEAX 311510
RWREAX

WEATHER ROUNDUP FOR EASTERN KANSAS AND NORTHWEST MISSOURI
NATIONAL WEATHER SERVICE KANSAS CITY/PLEASANT HILL MO
1000 AM CDT THU JUL 31 2014

KSZ040-057-103>105-MOZ028-029-037-043-311600-
...KANSAS CITY METROPOLITAN AREA...

CITY           SKY/WX    TMP DP  RH WIND       PRES   REMARKS
K.C. INTL      PTSUNNY   76  60  57 CALM      30.12S
K.C. DOWNTOWN  SUNNY     76  61  59 NE3       30.10F
LEES SUMMIT    MOSUNNY   74  61  63 VRB3      30.12S
OLATHE - IXD   SUNNY     74  60  61 CALM      30.12F
OLATHE - OJC   SUNNY     73  60  63 CALM      30.11S
LAWRENCE       MOSUNNY   70  61  73 W3        30.12S

$$

MOZ001>008-011>017-020>025-030>033-038>040-044>046-053-054-311600-
...NORTHERN AND CENTRAL MISSOURI...

CITY           SKY/WX    TMP DP  RH WIND       PRES   REMARKS
ST. JOSEPH     MOSUNNY   73  60  63 CALM      30.12S
MOSBY            N/A     72  61  68 CALM      30.11S
WHITEMAN AFB   MOSUNNY   74  53  49 E2        30.11S
CLINTON        NOT AVBL
SEDALIA        SUNNY     77  59  53 SE8       30.11F
WARSAW         NOT AVBL
MARSHALL       SUNNY     77  64  65 E5        30.12S
CHILLICOTHE      N/A     74  62  66 S3        30.12S
MOBERLY        SUNNY     77  57  50 CALM      30.12S
KIRKSVILLE     SUNNY     75  60  59 W5        30.12F

$$

MOZ041-047>049-056>058-063>065-088>090-097-311600-
...EASTERN AND SOUTHERN MISSOURI...

CITY           SKY/WX    TMP DP  RH WIND       PRES   REMARKS
ST. LOUIS INTL MOSUNNY   80  61  52 E6        30.10
SPIRIT OF STL  MOSUNNY   76  61  59 E3        30.09S
COLUMBIA       SUNNY     76  60  57 SE7       30.11S
JEFFERSON CITY SUNNY     73  61  65 SE5       30.10S
MEXICO         SUNNY     79  64  61 E3        30.11S
HANNIBAL       SUNNY     77  57  50 CALM      30.11S
ROLLA          SUNNY     75  59  57 SE5       30.10S
LEBANON        SUNNY     75  57  53 E6        30.12S
OSAGE BEACH    SUNNY     73  63  68 CALM      30.11S
SPRINGFIELD    MOSUNNY   73  63  70 VRB3      30.11S
BRANSON        CLOUDY    70  68  94 CALM      30.12S
NEVADA         MOSUNNY   72  64  78 CALM      30.12F
JOPLIN         PTSUNNY   71  65  81 NE6       30.11S
WEST PLAINS    CLOUDY    71  64  78 SE6       30.12S
MALDEN         PTSUNNY   73  66  78 SW6       30.12S

$$

IAZ060-094-KSZ022-034>040-054-083-096-NEZ052-066-093-311600-
...KANSAS...SOUTHEAST NEBRASKA AND IOWA...

CITY           SKY/WX    TMP DP  RH WIND       PRES   REMARKS
TOPEKA         SUNNY     73  58  59 NW5       30.13S
MANHATTAN      SUNNY     72  61  68 CALM      30.13F
EMPORIA        SUNNY     72  61  68 N6        30.13F
CHANUTE        CLOUDY    68  64  87 CALM      30.12S
WICHITA        MOSUNNY   72  61  68 N5        30.14F
OMAHA          MOSUNNY   73  56  54 S5        30.11S
LINCOLN        SUNNY     75  56  51 S7        30.12S
FALLS CITY     SUNNY     73  59  61 CALM      30.12S
LAMONI         SUNNY     74  61  63 SW3       30.12S
DES MOINES     SUNNY     73  60  63 W5        30.10S

$$



USA.gov is the U.S. government's official web portal to all federal, state and local government web resources and services.